[[{"header":{"parameterUnit":"m.s-1","parameterCategory":2,"la1":30.2992,"la2":30.254,"lo1":-89.0895,"lo2":-89.0443,"dy":0.0025,"dx":0.0025,"nx":19,"ny":19,"refTime":"2026-05-01T03:00:00:Z","depth":"0","parameterNumber":2,"parameterNumberName":"U-component_of_CURRENTS"},"data":[0,0,0,0.2397,0.2398,0.2418,0.2418,0.2433,0.2433,0,0,0,0,0,0,0,0,0,0,0,0.2387,0.2387,0.2397,0.2398,0.2418,0.2418,0.2433,0.2433,0,0,0,0,0,0,0,0,0,0,0,0.2387,0.2387,0.2388,0.2398,0.2418,0.2418,0.2433,0.2417,0,0,0,0,0,0,0,0,0,0,0.2397,0.2384,0.2387,0.2388,0.2399,0.2419,0.2418,0.2416,0.2418,0.2424,0,0.2436,0,0.2443,0.2435,0.2435,0,0,0,0.2385,0.2383,0.2402,0.2388,0.2399,0.2419,0.2405,0.2417,0.2419,0.2427,0.2437,0.2437,0.2443,0.2435,0.2435,0.2515,0.2516,0,0,0.2384,0.2375,0.2401,0.2404,0.2416,0.2405,0.2406,0.2418,0.2417,0.2437,0.2438,0.2443,0.2435,0.2436,0.2515,0.2515,0,0,0,0.2389,0.2374,0.2393,0.2403,0.2412,0.2406,0.2407,0.2416,0.2427,0.2438,0.2444,0.2435,0.2436,0.2514,0.2515,0.2608,0,0,0,0.2388,0.2379,0.2392,0.2385,0.2412,0.2414,0.2405,0.2425,0.2427,0.2443,0.2435,0.2436,0.2513,0.2514,0.2604,0.2634,0,0,0,0.2384,0.2378,0.2387,0.2385,0.2402,0.2414,0.2424,0.2426,0.2431,0.2435,0.2436,0.2513,0.2514,0.26,0.2628,0.2735,0,0,0,0.2364,0.2371,0.2387,0.2402,0.2402,0.2439,0.2424,0.2436,0.244,0.2436,0.2513,0.2515,0.2599,0.2624,0.2731,0.2754,0.2778,0,0,0.2361,0.237,0.2383,0.2398,0.2436,0.2434,0.2491,0.2485,0.247,0.2504,0.2506,0.2605,0.2628,0.2734,0.2845,0.2866,0,0,0,0.2374,0.2383,0.2398,0.2427,0.2458,0.2516,0.2514,0.254,0.2581,0.2484,0.2611,0.2622,0.2687,0.2691,0.2708,0.2601,0.2522,0.2522,0.2522,0.2338,0.2376,0.2404,0.246,0.2499,0.2568,0.2625,0.2662,0.2633,0.2678,0.2703,0.285,0.2855,0.2868,0.2757,0.2713,0.2714,0.2714,0.2714,0.2337,0.2352,0.2421,0.2458,0.2544,0.2602,0.2734,0.2759,0.2876,0.2807,0.2867,0.2793,0.2893,0.2767,0.272,0.2719,0.2718,0.2718,0.2717,0.2303,0.2316,0.2349,0.2428,0.2528,0.2637,0.2781,0.2885,0.2946,0.3015,0.3038,0.3036,0.2923,0.3058,0.3059,0.3059,0.306,0.306,0.3061,0.2241,0.2282,0.2313,0.2408,0.2468,0.2612,0.2825,0.2929,0.3094,0.3141,0.3142,0.2962,0.2955,0.294,0.3071,0.3069,0.3068,0.3067,0.3066,0.2196,0.2208,0.2261,0.231,0.2459,0.2551,0.2781,0.3034,0.3186,0.327,0.3164,0.3223,0.3202,0.3186,0.3176,0.3361,0.3361,0.3361,0.3361,0.2151,0.2166,0.2215,0.2281,0.2396,0.2523,0.2648,0.2846,0.3089,0.3145,0.3224,0.312,0.3113,0.3078,0.3065,0.3048,0.3196,0.3196,0.3195,0.2131,0.2153,0.2168,0.2229,0.235,0.2447,0.2484,0.2566,0.2914,0.3175,0.3076,0.3083,0.2909,0.2906,0.2828,0.2819,0.2782,0,0]},{"header":{"parameterUnit":"m.s-1","parameterCategory":2,"la1":30.2992,"la2":30.254,"lo1":-89.0895,"lo2":-89.0443,"dy":0.0025,"dx":0.0025,"nx":19,"ny":19,"refTime":"2026-05-01T03:00:00:Z","depth":"0","parameterNumber":3,"parameterNumberName":"V-component_of_CURRENTS"},"data":[0,0,0,-0.0115,-0.0116,-0.0158,-0.0159,-0.0243,-0.0243,0,0,0,0,0,0,0,0,0,0,0,-0.0096,-0.0096,-0.0115,-0.0116,-0.0158,-0.0159,-0.0243,-0.0243,0,0,0,0,0,0,0,0,0,0,0,-0.0096,-0.0096,-0.0096,-0.0116,-0.0158,-0.0159,-0.0242,-0.0205,0,0,0,0,0,0,0,0,0,0,-0.016,-0.0129,-0.0096,-0.0096,-0.0116,-0.0158,-0.0159,-0.0202,-0.0207,-0.023,0,-0.0228,0,-0.0237,-0.0249,-0.0249,0,0,0,-0.0123,-0.0126,-0.0143,-0.0096,-0.0116,-0.0158,-0.0141,-0.0205,-0.021,-0.0236,-0.0229,-0.0232,-0.0239,-0.025,-0.025,-0.0306,-0.0306,0,0,-0.012,-0.0102,-0.0139,-0.0146,-0.0118,-0.014,-0.0142,-0.0208,-0.0206,-0.0229,-0.0234,-0.024,-0.025,-0.0251,-0.0306,-0.0306,0,0,0,-0.0109,-0.01,-0.0115,-0.0142,-0.0148,-0.0141,-0.0144,-0.0203,-0.0209,-0.0235,-0.0241,-0.0251,-0.0252,-0.0306,-0.0306,-0.0229,0,0,0,-0.0108,-0.0094,-0.0114,-0.0104,-0.0146,-0.017,-0.0138,-0.0205,-0.0212,-0.0241,-0.0251,-0.0253,-0.0306,-0.0306,-0.0232,-0.0173,0,0,0,-0.0096,-0.0092,-0.0095,-0.0103,-0.0119,-0.0169,-0.0179,-0.0206,-0.0216,-0.0249,-0.0253,-0.0306,-0.0306,-0.0233,-0.0178,-0.014,0,0,0,-0.008,-0.006,-0.0094,-0.0076,-0.0119,-0.0129,-0.0179,-0.0194,-0.0216,-0.0251,-0.0306,-0.0306,-0.0234,-0.0181,-0.0142,-0.0001,0.0024,0,0,-0.0044,-0.0056,-0.0046,-0.0077,-0.0065,-0.0124,-0.0122,-0.0174,-0.0227,-0.0288,-0.0289,-0.0231,-0.0178,-0.014,0.0002,0.0027,0,0,0,-0.0027,-0.0016,-0.0019,-0.0022,-0.0049,-0.0065,-0.0125,-0.016,-0.0212,-0.024,-0.0251,-0.022,-0.0199,-0.012,-0.0101,-0.0188,-0.0305,-0.0305,-0.0305,0.0053,0.0033,0.0055,0.003,0.0021,-0.003,-0.0051,-0.0114,-0.0176,-0.0192,-0.0174,-0.0112,-0.0029,-0.0012,-0.0105,-0.0207,-0.0207,-0.0206,-0.0206,0.0121,0.0137,0.0114,0.0126,0.0094,0.0086,0.0014,-0.0031,-0.0068,-0.0131,-0.0115,-0.0063,0.0014,-0.0093,-0.0202,-0.0202,-0.0203,-0.0204,-0.0204,0.0182,0.0186,0.0186,0.0205,0.0217,0.017,0.0201,0.0121,0.0021,0.0034,0.0102,0.0102,0.0023,0.0037,0.0037,0.0038,0.0038,0.0038,0.0039,0.0241,0.0243,0.0279,0.0292,0.0319,0.0352,0.0317,0.0307,0.0273,0.0214,0.0214,0.0044,-0.0038,-0.003,0.0045,0.0044,0.0043,0.0043,0.0042,0.0312,0.0314,0.0379,0.0412,0.0488,0.0608,0.0562,0.0606,0.0552,0.0568,0.031,0.0298,0.0292,0.0276,0.0291,0.0444,0.0444,0.0444,0.0444,0.0368,0.0367,0.0472,0.0552,0.0655,0.0728,0.0912,0.091,0.0702,0.0577,0.0421,0.0377,0.0365,0.0356,0.0339,0.0351,0.0516,0.0516,0.0515,0.042,0.0446,0.0537,0.0608,0.073,0.089,0.1103,0.1185,0.0833,0.0499,0.0269,0.0266,0.0174,0.0162,0.0121,0.0104,0.0114,0,0]}],[{"header":{"parameterUnit":"m.s-1","parameterCategory":2,"la1":30.2992,"la2":30.254,"lo1":-89.0895,"lo2":-89.0443,"dy":0.0025,"dx":0.0025,"nx":19,"ny":19,"refTime":"2026-05-01T03:00:00:Z","depth":"2","parameterNumber":2,"parameterNumberName":"U-component_of_CURRENTS"},"data":[0,0,0,0.2319,0.232,0.2349,0.2349,0.2368,0.2368,0,0,0,0,0,0,0,0,0,0,0,0.2307,0.2308,0.2319,0.232,0.2349,0.2349,0.2368,0.2368,0,0,0,0,0,0,0,0,0,0,0,0.2307,0.2308,0.2308,0.232,0.2349,0.2349,0.2368,0.2348,0,0,0,0,0,0,0,0,0,0,0.2321,0.2309,0.2308,0.2308,0.232,0.2349,0.2349,0.2347,0.2349,0.2353,0,0.2367,0,0.2374,0.237,0.237,0,0,0,0.2309,0.2307,0.2326,0.2308,0.2321,0.2349,0.2332,0.2348,0.235,0.2356,0.2367,0.2368,0.2374,0.237,0.237,0.2451,0.2452,0,0,0.2307,0.23,0.2324,0.2328,0.234,0.2332,0.2334,0.235,0.235,0.2367,0.2369,0.2375,0.237,0.2371,0.2451,0.2452,0,0,0,0.231,0.2299,0.2317,0.2327,0.2337,0.2333,0.2335,0.2349,0.2359,0.2369,0.2375,0.2371,0.2371,0.245,0.2451,0.255,0,0,0,0.2309,0.2302,0.2316,0.231,0.2337,0.2344,0.2334,0.2358,0.236,0.2375,0.2371,0.2371,0.2449,0.2451,0.2545,0.2575,0,0,0,0.2304,0.2301,0.231,0.231,0.2329,0.2344,0.2354,0.2358,0.2364,0.237,0.2371,0.2449,0.245,0.2542,0.2569,0.2674,0,0,0,0.2286,0.2295,0.231,0.2326,0.2329,0.2366,0.2354,0.237,0.2378,0.2371,0.2449,0.2451,0.254,0.2565,0.2669,0.2573,0.2587,0,0,0.2285,0.2294,0.2306,0.2321,0.2359,0.236,0.2419,0.2419,0.2406,0.2439,0.2441,0.2547,0.2569,0.2673,0.2665,0.2676,0,0,0,0.2298,0.2308,0.2322,0.2351,0.2381,0.2443,0.2444,0.2473,0.2521,0.2421,0.2552,0.2562,0.2625,0.2556,0.2566,0.2459,0.2458,0.2458,0.2458,0.227,0.2304,0.2331,0.2384,0.2423,0.2497,0.2556,0.2597,0.2571,0.262,0.2647,0.2795,0.2722,0.2728,0.2657,0.2658,0.2658,0.2659,0.2659,0.2271,0.2285,0.235,0.2387,0.2474,0.2535,0.2669,0.2699,0.2818,0.2753,0.2811,0.2667,0.2745,0.2667,0.2665,0.2664,0.2663,0.2663,0.2662,0.2242,0.2253,0.2287,0.2363,0.2465,0.2577,0.2722,0.2825,0.2894,0.2963,0.2904,0.29,0.2865,0.3007,0.3008,0.3009,0.3009,0.301,0.301,0.2186,0.2223,0.2255,0.2348,0.241,0.2554,0.2769,0.2869,0.2983,0.2999,0.2998,0.2913,0.2902,0.2886,0.302,0.3018,0.3017,0.3016,0.3015,0.2142,0.2155,0.2207,0.2256,0.2401,0.2473,0.2712,0.2898,0.3032,0.3069,0.303,0.3026,0.299,0.2978,0.2963,0.3111,0.3111,0.311,0.311,0.21,0.2115,0.2163,0.2224,0.2329,0.2437,0.2502,0.2577,0.2767,0.2785,0.2798,0.2661,0.2666,0.2602,0.2599,0.2572,0.2618,0.2616,0.2615,0.208,0.2102,0.2117,0.2174,0.2277,0.2343,0.2283,0.2143,0.2284,0.2588,0.2632,0.3093,0.2922,0.2918,0.2839,0.2827,0.2793,0,0]},{"header":{"parameterUnit":"m.s-1","parameterCategory":2,"la1":30.2992,"la2":30.254,"lo1":-89.0895,"lo2":-89.0443,"dy":0.0025,"dx":0.0025,"nx":19,"ny":19,"refTime":"2026-05-01T03:00:00:Z","depth":"2","parameterNumber":3,"parameterNumberName":"V-component_of_CURRENTS"},"data":[0,0,0,0.0014,0.0013,-0.0034,-0.0034,-0.011,-0.0111,0,0,0,0,0,0,0,0,0,0,0,0.0032,0.0032,0.0014,0.0013,-0.0034,-0.0034,-0.011,-0.0111,0,0,0,0,0,0,0,0,0,0,0,0.0032,0.0032,0.0032,0.0013,-0.0033,-0.0034,-0.011,-0.0073,0,0,0,0,0,0,0,0,0,0,-0.0026,0.0001,0.0032,0.0032,0.0013,-0.0033,-0.0034,-0.0071,-0.0075,-0.0092,0,-0.0093,0,-0.0102,-0.0116,-0.0116,0,0,0,0.0006,0.0004,-0.0012,0.0032,0.0012,-0.0033,-0.0015,-0.0073,-0.0078,-0.0098,-0.0094,-0.0097,-0.0103,-0.0116,-0.0117,-0.0159,-0.0159,0,0,0.0008,0.0024,-0.0008,-0.0015,0.0008,-0.0013,-0.0016,-0.0076,-0.0076,-0.0094,-0.0098,-0.0105,-0.0117,-0.0117,-0.0159,-0.0159,0,0,0,0.0021,0.0026,0.0011,-0.0011,-0.0018,-0.0014,-0.0018,-0.0073,-0.0079,-0.0099,-0.0106,-0.0117,-0.0118,-0.0159,-0.0159,-0.0092,0,0,0,0.0022,0.0033,0.0013,0.0022,-0.0016,-0.0042,-0.0013,-0.0074,-0.0082,-0.0105,-0.0117,-0.0119,-0.0159,-0.0159,-0.0094,-0.0036,0,0,0,0.0033,0.0035,0.0031,0.0023,0.0005,-0.0042,-0.0051,-0.0076,-0.0085,-0.0116,-0.0119,-0.0159,-0.0159,-0.0095,-0.0041,0.0004,0,0,0,0.0047,0.0064,0.0032,0.0048,0.0006,0.0,-0.0051,-0.0065,-0.0086,-0.0118,-0.0159,-0.0159,-0.0096,-0.0043,0.0001,0.0152,0.0177,0,0,0.008,0.0068,0.0078,0.0048,0.0063,0.0006,0.0013,-0.0041,-0.0092,-0.0142,-0.0143,-0.0093,-0.0041,0.0003,0.0162,0.0188,0,0,0,0.0096,0.0107,0.0104,0.0103,0.0081,0.0069,0.0011,-0.0022,-0.0074,-0.0103,-0.0108,-0.0077,-0.0051,0.0033,0.0052,-0.0158,-0.0158,-0.0158,-0.0158,0.0166,0.0152,0.0177,0.0159,0.0152,0.0107,0.009,0.0031,-0.0033,-0.0051,-0.0035,0.0032,0.0121,0.0138,-0.0065,-0.0064,-0.0064,-0.0064,-0.0064,0.0233,0.0252,0.0235,0.025,0.0226,0.0223,0.0161,0.0114,0.008,0.0011,0.0032,0.0084,0.0164,-0.0059,-0.006,-0.006,-0.0061,-0.0061,-0.0062,0.0288,0.0296,0.0298,0.0324,0.0342,0.0302,0.0343,0.0264,0.0163,0.0175,0.0252,0.0252,0.0097,0.0176,0.0177,0.0177,0.0177,0.0178,0.0178,0.0342,0.0348,0.0386,0.0406,0.0438,0.048,0.045,0.0449,0.0421,0.036,0.036,0.0113,0.0105,0.011,0.0185,0.0184,0.0183,0.0182,0.0182,0.041,0.0412,0.0482,0.0518,0.0611,0.074,0.0701,0.0759,0.0708,0.0734,0.0461,0.0452,0.0452,0.0436,0.0449,0.0606,0.0606,0.0606,0.0607,0.0464,0.0464,0.0573,0.0662,0.0781,0.0864,0.1042,0.1021,0.0887,0.0768,0.076,0.073,0.0711,0.072,0.0697,0.0712,0.0939,0.0939,0.0939,0.0517,0.0543,0.0635,0.0716,0.0857,0.103,0.1217,0.1198,0.0991,0.0943,0.0726,0.0647,0.0579,0.0558,0.0548,0.0522,0.0536,0,0]}],[{"header":{"parameterUnit":"m.s-1","parameterCategory":2,"la1":30.2992,"la2":30.254,"lo1":-89.0895,"lo2":-89.0443,"dy":0.0025,"dx":0.0025,"nx":19,"ny":19,"refTime":"2026-05-01T03:00:00:Z","depth":"4","parameterNumber":2,"parameterNumberName":"U-component_of_CURRENTS"},"data":[0,0,0,0.1495,0.1498,0.1639,0.1639,0.173,0.173,0,0,0,0,0,0,0,0,0,0,0,0.1453,0.1454,0.1495,0.1499,0.1638,0.1639,0.173,0.173,0,0,0,0,0,0,0,0,0,0,0,0.1452,0.1454,0.1455,0.1499,0.1638,0.1639,0.1729,0.1646,0,0,0,0,0,0,0,0,0,0,0.1521,0.1507,0.1453,0.1455,0.15,0.1638,0.1639,0.1643,0.1651,0.1641,0,0.1674,0,0.17,0.1734,0.1734,0,0,0,0.1499,0.15,0.1525,0.1455,0.1501,0.1638,0.1575,0.1648,0.1657,0.1651,0.1676,0.168,0.1702,0.1735,0.1735,0.1789,0.1789,0,0,0.1491,0.1487,0.1519,0.1531,0.1551,0.1571,0.158,0.1655,0.1675,0.1676,0.1682,0.1703,0.1735,0.1735,0.1789,0.1789,0,0,0,0.1469,0.1482,0.1507,0.1526,0.1557,0.1575,0.1585,0.1672,0.1678,0.1683,0.1704,0.1735,0.1736,0.1789,0.1789,0.1838,0,0,0,0.1464,0.1469,0.1504,0.1504,0.1557,0.1632,0.1601,0.1673,0.1682,0.1704,0.1735,0.1737,0.1789,0.1789,0.1836,0.1846,0,0,0,0.1444,0.1467,0.1484,0.1503,0.1562,0.1631,0.1643,0.1676,0.1694,0.1734,0.1737,0.1789,0.1789,0.1835,0.1844,0.1905,0,0,0,0.1432,0.1458,0.1485,0.1528,0.1561,0.1618,0.1643,0.1708,0.1745,0.1736,0.1789,0.1789,0.1834,0.1842,0.1903,0.1648,0,0,0,0.1446,0.1461,0.1483,0.1509,0.1557,0.1598,0.1658,0.1727,0.1741,0.1757,0.176,0.1837,0.1843,0.1905,0.167,0,0,0,0,0.1474,0.1491,0.1513,0.1556,0.1597,0.1651,0.171,0.1738,0.18,0.1766,0.183,0.1832,0.187,0.1714,0.1791,0.1791,0.1791,0.1791,0.1791,0.1476,0.1498,0.153,0.1567,0.161,0.1692,0.1743,0.1788,0.1806,0.1842,0.1868,0.1938,0.1772,0.1868,0.1868,0.1868,0.1868,0.1869,0.1869,0.147,0.1475,0.1528,0.1569,0.1628,0.1689,0.1778,0.1826,0.1911,0.1893,0.193,0.1768,0.1873,0.1872,0.1872,0.1871,0.1871,0.1871,0.187,0.1442,0.1441,0.1491,0.1544,0.1624,0.1713,0.1783,0.1883,0.1952,0.1996,0.1863,0.1978,0.1981,0.2043,0.2043,0.2044,0.2044,0.2044,0.2044,0.1377,0.1417,0.145,0.1524,0.1569,0.1666,0.181,0.1853,0.1961,0.1882,0.2032,0.1997,0.1991,0.1991,0.2049,0.2048,0.2048,0.2047,0.2047,0.1312,0.1355,0.1379,0.1421,0.1501,0.1541,0.171,0.1751,0.1798,0.1787,0.1822,0.1832,0.1795,0.1795,0.1787,0.1787,0.1784,0.1781,0,0.1266,0.1288,0.1308,0.1326,0.134,0.1451,0.1429,0.1515,0.1625,0.1582,0.1815,0.1854,0.1859,0.1816,0.1811,0.1798,0,0,0,0.1223,0.1237,0.122,0.125,0.1244,0.1294,0.1413,0.1389,0.1618,0.1566,0.1704,0.1724,0.1877,0.2064,0.2033,0.2026,0.2025,0,0]},{"header":{"parameterUnit":"m.s-1","parameterCategory":2,"la1":30.2992,"la2":30.254,"lo1":-89.0895,"lo2":-89.0443,"dy":0.0025,"dx":0.0025,"nx":19,"ny":19,"refTime":"2026-05-01T03:00:00:Z","depth":"4","parameterNumber":3,"parameterNumberName":"V-component_of_CURRENTS"},"data":[0,0,0,0.0208,0.0208,0.018,0.018,0.0136,0.0136,0,0,0,0,0,0,0,0,0,0,0,0.022,0.022,0.0208,0.0208,0.018,0.018,0.0136,0.0136,0,0,0,0,0,0,0,0,0,0,0,0.022,0.022,0.022,0.0208,0.018,0.018,0.0137,0.0158,0,0,0,0,0,0,0,0,0,0,0.0185,0.0199,0.022,0.022,0.0208,0.018,0.018,0.0159,0.0156,0.0149,0,0.0152,0,0.0145,0.0134,0.0134,0,0,0,0.0201,0.0201,0.0195,0.022,0.0208,0.018,0.019,0.0158,0.0155,0.0146,0.0151,0.0149,0.0144,0.0133,0.0133,0.0153,0.0154,0,0,0.0202,0.0211,0.0197,0.0194,0.0209,0.0191,0.019,0.0156,0.0156,0.0151,0.0148,0.0144,0.0133,0.0133,0.0153,0.0153,0,0,0,0.0212,0.0212,0.0207,0.0196,0.0193,0.0191,0.0189,0.0157,0.0156,0.0148,0.0143,0.0133,0.0133,0.0152,0.0153,0.022,0,0,0,0.0212,0.0218,0.0208,0.0212,0.0194,0.0175,0.0191,0.0158,0.0154,0.0143,0.0133,0.0132,0.0152,0.0152,0.0217,0.0266,0,0,0,0.022,0.0218,0.0218,0.0212,0.0203,0.0176,0.0172,0.0157,0.0152,0.0134,0.0132,0.0151,0.0152,0.0215,0.026,0.0303,0,0,0,0.0224,0.0236,0.0219,0.023,0.0204,0.0211,0.0172,0.0167,0.0156,0.0133,0.0152,0.0153,0.0214,0.0257,0.0299,0.0288,0,0,0,0.0243,0.0238,0.0245,0.0229,0.025,0.0214,0.0243,0.0206,0.0171,0.0159,0.016,0.0218,0.026,0.0302,0.0355,0,0,0,0,0.0254,0.0265,0.0266,0.0274,0.0267,0.0289,0.025,0.0241,0.023,0.0171,0.0223,0.0248,0.0272,0.0255,0.0158,0.0158,0.0158,0.0158,0.0158,0.0296,0.0295,0.0323,0.033,0.0338,0.0337,0.0347,0.0331,0.0278,0.0289,0.0305,0.039,0.0375,0.0297,0.0297,0.0297,0.0298,0.0298,0.0298,0.0344,0.0367,0.0379,0.0406,0.0426,0.0452,0.0457,0.0432,0.0435,0.0379,0.0398,0.0331,0.0305,0.0304,0.0303,0.0302,0.0301,0.0301,0.03,0.0379,0.0393,0.041,0.0466,0.0526,0.0543,0.0615,0.0583,0.0521,0.0532,0.0501,0.0444,0.0436,0.0533,0.0534,0.0534,0.0535,0.0535,0.0535,0.0406,0.0427,0.048,0.0536,0.0594,0.0676,0.0709,0.071,0.0651,0.0597,0.0556,0.0469,0.0461,0.0449,0.0542,0.054,0.054,0.0539,0.0539,0.0447,0.046,0.0542,0.0601,0.0735,0.0791,0.0828,0.0797,0.0792,0.0744,0.0624,0.0618,0.0596,0.0585,0.0576,0.0709,0.071,0.071,0,0.0479,0.0488,0.0607,0.0715,0.0828,0.087,0.0888,0.0875,0.0779,0.0761,0.078,0.0647,0.064,0.0615,0.0606,0.0597,0,0,0,0.0516,0.0548,0.064,0.0742,0.0867,0.089,0.0897,0.0867,0.0795,0.0773,0.0716,0.0714,0.064,0.0561,0.0513,0.0503,0.0482,0,0]}]]